Showing default

LUOJIA-1 01, 43485

Orbit data source: Space-Track

LUOJIA-1 01, 43485 is a payload satellite owned by Wuhan daxue (CN) in SSO that was launched on Sat, 02 Jun 2018 UTC via a CHANG ZHENG 2D launch vehicle from the Jiuquan Satellite Launch Center, China (JSC). Payload-class satellites include a variety of spacecraft equipped with specific instruments for various scientific and technological missions. These include communications satellites like Starlink; space stations such as the ISS; scientific satellites like the Hubble; Earth observation satellites from companies like Planet Labs, Umbra, and HawkEye 360; GPS; miniature CubeSats for education and research; and military/defense satellites.

Loading next visibility...
Identifier
43485, 2018-048B
Orbit
SSO
Country
Flag of CNCN / PRC
Related business
Manufacturer
Wuhan daxue
Mission
Operational Amateur Imaging
Bus & Motor
CUBESAT 6U, Unknown motor
Mass
10 kg wet, 10 kg dry
Launch date (UTC)
2018-06-02 (7 years ago)
Launch vehicle
CHANG ZHENG 2D
Launch site
Jiuquan Satellite Launch Center, China (JSC)
Object type
Payload
Rocket body
Debris
Shape & HBR
Box + 1 Pan, 0.3 m
Radar Cross Section
0.092 m², Medium (>0.1 m² and < 1m²)

Expand to show TLE details & history
Last TLE update: 14 hours ago

TLE from 14 hours ago
0 LUOJIA-1 01
1 43485U 18048B   25258.28161288  .00002419  00000-0  28538-3 0  9998
2 43485  97.8369 335.7992 0008126 309.5670  50.4827 14.85632345393375
Epoch: 2025-09-15T06:45Z
TLE epoch observation values (Epoch: 2025-09-15T06:45:31.352Z)
Latitude
-0.00002°
Longitude
-120.06994°
Altitude
611.021 km
Speed
7.556 km/s
True Right ascension
22h 23m 11s
True Declination
0° 00' 00"
Sunlit
Object was in full shadow at epoch
Visualization orbit readout
Latitude
Unknown
Longitude
Unknown
Altitude
Unknown
Speed
Unknown
Apparent Right ascension
Unknown
Apparent Declination
Unknown
Sunlit
N/A
Visualization observer readout
Local Sidereal Time
12:58:01
Azimuth
Unknown
Elevation
Unknown
Doppler factor
Unknown
Orbital elements
Apogee altitude
614.31 km
Perigee altitude
602.955 km
Semi-major axis
6,986.769 km
Eccentricity
0.00081
Inclination
97.8369°
RAAN
335.7992°
Arg. of periapsis
309.567°
True anomaly
50.55458°
Mean anomaly
50.4827°
Eccentric anomaly
50.51864°
Mean motion
3.71645 °/min
Orbital period
96.87 mins
BSTAR
0.00028538
Loading maneuver chart data...
Computing Atmospheric mass density...
Loading historical data...
Loading historical data...
Loading historical data...
Loading historical data...
Loading historical data...
Loading historical data...
Loading historical data...
Other satellites on launch #48 in the year 2018 (2018-06-02 UTC)

Documentation

Showing up to 5 results
|